DELTA 1 DEB, 10872

Orbit data source: Space-Track

DELTA 1 DEB, 10872 is space debris in SSO originally from a launch on Thu, 29 Jul 1976 UTC launched from the Air Force Western Test Range (AFWTR). Debris objects in space refer to the collection of defunct objects orbiting the Earth. Examples of debris include non-operational satellites, rocket bodies, and fragments generated from explosions, collisions, or faulty payload assembly.

Loading next visibility...
Identifier
10872, 1976-077DA
Orbit
SSO
Country
Flag of USUS
Related business
Manufacturer
Unknown
Mission
Spacecraft
Bus & Motor
Unknown
Mass
Unknown
Launch date (UTC)
1976-07-29 (50 years ago)
Launch vehicle
Unknown
Launch site
Air Force Western Test Range (AFWTR)
Object type
Payload
Rocket body
Debris
Shape & HBR
Unknown shape, 0.1 m
Radar Cross Section
Small (<0.1 m²)

Expand to show TLE details & history
Last TLE update: 2 days ago

TLE from 2 days ago
0 DELTA 1 DEB
1 10872U 76077DA  26124.55807579  .00000048  00000-0  76217-3 0  9994
2 10872 101.4724 134.0241 0103053  94.0155  28.7439 12.27154980226529
Epoch: 2026-05-04T13:23Z
TLE epoch observation values (Epoch: 2026-05-04T13:23:37.748Z)
Latitude
55.05798°
Longitude
-92.52793°
Altitude
1,498.89 km
Speed
7.152 km/s
True Right ascension
22h 03m 17s
True Declination
54° 54' 42"
Sunlit
Object was in daylight at epoch
Visualization orbit readout
Latitude
Unknown
Longitude
Unknown
Altitude
Unknown
Speed
Unknown
Apparent Right ascension
Unknown
Apparent Declination
Unknown
Sunlit
N/A
Visualization observer readout
Local Sidereal Time
02:57:23
Azimuth
Unknown
Elevation
Unknown
Doppler factor
Unknown
Orbital elements
Apogee altitude
1,640.885 km
Perigee altitude
1,477.294 km
Semi-major axis
7,937.227 km
Eccentricity
0.01031
Inclination
101.4724°
RAAN
134.0241°
Arg. of periapsis
94.0155°
True anomaly
29.31826°
Mean anomaly
28.7439°
Eccentric anomaly
29.03043°
Mean motion
3.0693 °/min
Orbital period
117.29 mins
BSTAR
0.00076217
Loading maneuver chart data...
Computing Atmospheric mass density...
Loading historical data...
Loading historical data...
Loading historical data...
Loading historical data...
Loading historical data...
Loading historical data...
Loading historical data...

Documentation

Showing up to 5 results
|